STARLINK-34448

Satellite information

Favourite Embed

Satellite Type and Status

PAYLOADIN ORBIT

Key statistics

Satellite STARLINK-34448 at a glance.

Uptime

27

Days in orbit

Revolutions

≈ 15.4

Per day

Orbit

LEO

Low Earth Orbit

Inclination

70.0

Latest

Satellite identification and parameters

Extended collection of information and parameters for STARLINK-34448.

Object identification

Identified? True

Debris? False

Object name: STARLINK-34448

International designator: 2025-123A

Object number (NORAD): 64291

Object ID (CCSDS): 64291

Country: UNITED STATES OF AMERICA (US)

Current information (Y/N): Y

RCS size: LARGE

Orbital parameters

Period: 93.345 minutes

Inclination: 69.9999 deg

SMA: 6816.38 km

Apoapsis: 440.492 km

Periapsis: 435.998 km

RAAN: 114.7745 deg

Eccentricy: 0.0003296

Argument of periapsis: 272.1157 deg

Mean anomaly: 187.6381 deg

Mean motion: 15.42666618 rev/day

Mean motion (dot): 0.00065171 rev/day2

B* drag term: 0.0014813 1/REarth

Two-line elements (TLE)

Creation date: July 4, 2025, 6:39 p.m.

Reference frame: TEME

Reference center: EARTH

Epoch: July 4, 2025, 2 p.m. UTC

TLE line 0: 0 STARLINK-34448

TLE line 1: 1 64291U 25123A 25185.58335648 .00065171 00000-0 14813-2 0 9997

TLE line 2: 2 64291 69.9999 114.7745 0003296 272.1157 187.6381 15.42666618 5283

Live tracking on map

Real-time ground track for satellite STARLINK-34448.

In-orbit conjunctions

There are no conjunctions computed for STARLINK-34448, at the moment. Check back to stay up to date, as we update our databases every day.

Go to all conjunctions

Associated space launch

A batch of 26 satellites for the Starlink mega-constellation - SpaceX's project for space-based Internet communication system.

STARLINK-34448 was lifted into orbit during the mission ‘Falcon 9 Block 5 | Starlink Group 15-8’, on board a Falcon 9 space rocket.

The launch took place on June 8, 2025, 2:20 p.m. from Space Launch Complex 4E.

For more information about the launch, click the button.

Launch to space Falcon 9 Block 5 | Starlink Group 15-8
Falcon 9 Block 5 | Starlink Group 15-8

Agency: SpaceX

Status: Launch Successful

Launch date: June 8, 2025, 2:20 p.m. UTC

Rocket: Falcon 9

Launch pad: Space Launch Complex 4E

Location: Vandenberg SFB, CA, USA

...

Latest news about this satellite

News about space launch
Live coverage: SpaceX to launch 26 Starlink satellites on Falcon 9 rocket from Vandenberg SFB

The mission, dubbed Starlink 15-8, will be SpaceX’s 70th Falcon 9 launch of the year. It’s targeting a liftoff from pad 4 East at 6:34 a.m. PDT (9:34 a.m. EDT, 1334 UTC).

News about space launch
Launch Roundup: Falcon 9 to launch crewed mission, Rocket Lab to launch 65th Electron

SpaceX continues to dominate the launch manifest with five missions this week, including a crewed… The post Launch Roundup: Falcon 9 to launch crewed mission, Rocket Lab to launch 65th Electron appeared first on NASASpaceFlight.com.


Newsletter sign-up

Weekly statistics, charts and insights to help you stay on top of the space industry.